Hovedside
METAR-TAF:

METAR-TAF

Lufthavner :

Gamvik, Norge

Mehamn lufthavn

breddegrad: 71-02N, lengdegrad: 027-50E, høyde over havet: 1 m

Gjeldene værobservasjon

Denne rapporten ble laget for 1 time og 7 minutter siden, klokken 20:50 UTC
Vind 1 kt fra skiftende retning
Temperatur 11°C
Luftfuktighet 87%
Trykk 1011 hPa
Sikt 10 km eller mer
ingen skyer under 1500 m og ingen bygeskyer

METAR: ENMH 182050Z VRB01KT CAVOK 11/09 Q1011

Tid: 23:57 (21:57 UTC)


TAF: fraværende

Værobservasjoner og værvarsel for over 4000 flyplasser (METAR- og TAF-rapporter).

Tilgjengelige stasjoner er representert av de røde og gule prikkene på kartet.

Hold musepekeren over prikken for å se navnet på stasjonen.

Klikk så for å se værobservasjoner og -varsler.

For å forandre kartet kan du klikke på den grønne knappen med svart kryss for å zoome inn, på den grønne knappen med strek for å zoome ut, eller på de grønne pilene for å se tilstøtende kart.


METAR-TAF: